EW2013 Weather Reports


Display with metric or nautical units.
time (UTC)temp
F
wind
direction
speed
MPH
gust
MPH
rain 1hr
in
rain 24hr
in
rain mn
in
humidity
%
barometer
mb
20230201024205 10 32 1.0 4.0 0.00 0.00 0.00 74 1019.5
20230201023705 11 32 1.0 4.0 0.00 0.00 0.00 73 1019.6
20230201022204 11 33 0.0 3.0 0.00 0.00 0.00 72 1019.5
20230201021704 12 33 1.0 3.0 0.00 0.00 0.00 72 1019.5
20230201020204 12 33 1.0 3.0 0.00 0.00 0.00 72 1019.3
20230201015706 12 33 0.0 3.0 0.00 0.00 0.00 72 1019.1
20230201015204 12 33 0.0 3.0 0.00 0.00 0.00 71 1019.1
20230201014704 13 33 1.0 4.0 0.00 0.00 0.00 71 1019.1
20230201014204 13 33 1.0 4.0 0.00 0.00 0.00 71 1019.1
20230201013704 13 33 1.0 4.0 0.00 0.00 0.00 70 1019.1
20230201012704 13 38 0.0 0.0 0.00 0.00 0.00 69 1018.7
20230201012205 13 38 0.0 0.0 0.00 0.00 0.00 69 1018.7
20230201011705 14 38 0.0 0.0 0.00 0.00 0.00 69 1018.7
20230201011204 14 38 0.0 0.0 0.00 0.00 0.00 68 1018.4
20230201010705 14 38 0.0 0.0 0.00 0.00 0.00 68 1018.6
20230201010204 14 38 0.0 0.0 0.00 0.00 0.00 67 1018.4
20230201005205 15 38 0.0 0.0 0.00 0.00 0.00 66 1018.3
20230201004705 15 38 0.0 0.0 0.00 0.00 0.00 65 1018.4
20230201004205 16 38 0.0 0.0 0.00 0.00 0.00 65 1018.4
20230201003205 17 38 0.0 0.0 0.00 0.00 0.00 63 1018.6
20230201002705 17 38 0.0 0.0 0.00 0.00 0.00 62 1018.4
20230201002204 18 38 0.0 0.0 0.00 0.00 0.00 61 1018.3
20230201001707 18 38 0.0 0.0 0.00 0.00 0.00 60 1018.4
20230201001205 19 38 0.0 0.0 0.00 0.00 0.00 59 1018.3
20230201000705 20 38 0.0 0.0 0.00 0.00 0.00 59 1018.2
20230201000204 20 38 0.0 0.0 0.00 0.00 0.00 59 1018.2
20230131235704 21 38 0.0 0.0 0.00 0.00 0.00 58 1018.1
20230131235204 21 38 0.0 0.0 0.00 0.00 0.00 59 1018.0
20230131234704 21 38 0.0 0.0 0.00 0.00 0.00 58 1017.7
20230131234204 22 38 0.0 0.0 0.00 0.00 0.00 57 1018.1
20230131233704 22 38 0.0 0.0 0.00 0.00 0.00 56 1018.0
20230131232704 22 38 0.0 0.0 0.00 0.00 0.00 55 1018.0
20230131232204 22 38 0.0 0.0 0.00 0.00 0.00 54 1018.1
20230131231704 22 38 0.0 0.0 0.00 0.00 0.00 54 1018.1
20230131231205 23 38 0.0 0.0 0.00 0.00 0.00 54 1018.1
20230131230705 23 38 0.0 0.0 0.00 0.00 0.00 53 1018.1
20230131230206 23 38 0.0 0.0 0.00 0.00 0.00 53 1017.9
20230131225704 23 38 0.0 0.0 0.00 0.00 0.00 52 1017.9
20230131225204 24 38 0.0 0.0 0.00 0.00 0.00 52 1018.0
20230131224704 24 38 0.0 0.0 0.00 0.00 0.00 53 1017.9
20230131224204 24 38 0.0 0.0 0.00 0.00 0.00 53 1017.9
20230131223204 23 38 0.0 0.0 0.00 0.00 0.00 54 1017.6
20230131222705 23 38 0.0 0.0 0.00 0.00 0.00 54 1017.7
20230131222204 23 38 0.0 4.0 0.00 0.00 0.00 55 1017.7
20230131221704 23 38 1.0 4.0 0.00 0.00 0.00 53 1017.7
20230131221204 23 38 1.0 4.0 0.00 0.00 0.00 54 1017.7
20230131220722 23 38 0.0 0.0 0.00 0.00 0.00 54 1017.6
20230131220211 23 38 0.0 4.0 0.00 0.00 0.00 54 1017.6
20230131215705 23 38 1.0 4.0 0.00 0.00 0.00 55 1017.6
20230131215210 22 38 2.0 4.0 0.00 0.00 0.00 55 1017.6
20230131214704 22 38 2.0 4.0 0.00 0.00 0.00 56 1017.6
20230131213706 22 39 1.0 5.0 0.00 0.00 0.00 55 1017.4
20230131213205 23 39 1.0 5.0 0.00 0.00 0.00 53 1017.4
20230131212704 23 38 2.0 5.0 0.00 0.00 0.00 54 1017.4
20230131212212 23 40 2.0 5.0 0.00 0.00 0.00 53 1017.4
20230131211704 23 28 2.0 5.0 0.00 0.00 0.00 52 1017.4
20230131211211 24 16 1.0 5.0 0.00 0.00 0.00 51 1017.3
20230131210705 24 0 1.0 5.0 0.00 0.00 0.00 52 1017.4
20230131210206 24 0 1.0 4.0 0.00 0.00 0.00 52 1017.5
20230131205704 23 46 0.0 0.0 0.00 0.00 0.00 53 1017.5
20230131205204 24 81 0.0 0.0 0.00 0.00 0.00 53 1017.5
20230131204705 23 83 0.0 0.0 0.00 0.00 0.00 53 1017.5
20230131204205 23 84 0.0 0.0 0.00 0.00 0.00 53 1017.5
20230131203705 23 84 0.0 0.0 0.00 0.00 0.00 54 1017.6
20230131203205 22 84 0.0 0.0 0.00 0.00 0.00 55 1017.6
20230131202704 22 84 0.0 0.0 0.00 0.00 0.00 54 1017.7
20230131201706 22 84 0.0 0.0 0.00 0.00 0.00 53 1018.0
20230131201205 22 84 0.0 0.0 0.00 0.00 0.00 53 1018.0
20230131200704 22 84 0.0 0.0 0.00 0.00 0.00 52 1018.1
20230131200204 23 107 0.0 0.0 0.00 0.00 0.00 51 1018.2
20230131195706 23 109 0.0 0.0 0.00 0.00 0.00 55 1018.3
20230131195205 22 109 0.0 0.0 0.00 0.00 0.00 53 1018.3
20230131194704 22 112 0.0 0.0 0.00 0.00 0.00 54 1018.3
20230131194205 22 121 0.0 0.0 0.00 0.00 0.00 53 1018.6
20230131193704 22 124 0.0 0.0 0.00 0.00 0.00 53 1018.6
20230131193204 22 124 0.0 0.0 0.00 0.00 0.00 56 1018.7
20230131192704 21 124 0.0 2.0 0.00 0.00 0.00 55 1018.8
20230131192204 21 130 0.0 3.0 0.00 0.00 0.00 53 1018.9
20230131191706 21 230 0.0 3.0 0.00 0.00 0.00 52 1019.0
20230131190704 21 231 1.0 3.0 0.00 0.00 0.00 52 1019.3
20230131190204 21 229 1.0 3.0 0.00 0.00 0.00 52 1019.3
20230131185705 21 227 0.0 4.0 0.00 0.00 0.00 53 1019.3
20230131185204 22 227 2.0 4.0 0.00 0.00 0.00 55 1019.5
20230131184704 21 227 2.0 4.0 0.00 0.00 0.00 56 1019.5
20230131184205 20 229 0.0 4.0 0.00 0.00 0.00 57 1019.6
20230131183705 19 241 1.0 4.0 0.00 0.00 0.00 57 1019.7
20230131182205 18 244 0.0 3.0 0.00 0.00 0.00 61 1020.1
20230131181704 17 244 0.0 4.0 0.00 0.00 0.00 61 1020.2
20230131181204 17 244 1.0 4.0 0.00 0.00 0.00 62 1020.3
20230131180705 17 243 1.0 4.0 0.00 0.00 0.00 64 1020.3
20230131180205 17 259 1.0 3.0 0.00 0.00 0.00 65 1020.2
20230131175704 16 289 1.0 3.0 0.00 0.00 0.00 65 1020.4
20230131175204 16 290 0.0 3.0 0.00 0.00 0.00 67 1020.4
20230131173204 13 291 0.0 4.0 0.00 0.00 0.00 71 1020.8
20230131172704 13 291 1.0 4.0 0.00 0.00 0.00 73 1020.9
20230131172204 11 291 2.0 4.0 0.00 0.00 0.00 72 1021.0
20230131171705 12 291 1.0 4.0 0.00 0.00 0.00 74 1020.9
20230131171204 12 291 1.0 4.0 0.00 0.00 0.00 74 1020.8
20230131170704 11 291 2.0 5.0 0.00 0.00 0.00 75 1020.9
20230131170204 10 291 2.0 5.0 0.00 0.00 0.00 76 1020.9
20230131165704 10 290 3.0 6.0 0.00 0.00 0.00 76 1020.9
20230131165205 10 292 3.0 7.0 0.00 0.00 0.00 77 1020.8
20230131164704 9 292 3.0 7.0 0.00 0.00 0.00 77 1020.9
20230131164206 8 292 3.0 7.0 0.00 0.00 0.00 78 1020.7
20230131163704 8 288 3.0 7.0 0.00 0.00 0.00 78 1020.7
20230131163205 8 318 3.0 7.0 0.00 0.00 0.00 79 1020.9
20230131162705 8 275 3.0 7.0 0.00 0.00 0.00 80 1020.5
20230131162204 8 275 2.0 5.0 0.00 0.00 0.00 81 1020.8
20230131161204 6 274 1.0 3.0 0.00 0.00 0.00 82 1020.7
20230131160704 6 275 2.0 5.0 0.00 0.00 0.00 83 1020.8
20230131160204 5 277 2.0 5.0 0.00 0.00 0.00 83 1020.3
20230131155704 5 279 3.0 6.0 0.00 0.00 0.00 83 1020.7
20230131154705 4 281 3.0 6.0 0.00 0.00 0.00 84 1020.5
20230131154205 3 296 3.0 5.0 0.00 0.00 0.00 84 1020.4
20230131153204 3 0 2.0 6.0 0.00 0.00 0.00 84 1020.3
20230131152704 3 23 1.0 6.0 0.00 0.00 0.00 84 1020.5
20230131152206 3 240 1.0 4.0 0.00 0.00 0.00 85 1020.3
20230131151705 2 240 1.0 4.0 0.00 0.00 0.00 85 1020.3
20230131151204 1 240 2.0 4.0 0.00 0.00 0.00 85 1020.2
20230131150704 1 240 2.0 4.0 0.00 0.00 0.00 85 1020.2
20230131150204 1 239 2.0 4.0 0.00 0.00 0.00 85 1020.0
20230131145704 0 239 1.0 4.0 0.00 0.00 0.00 85 1020.0
20230131145205 -1 254 1.0 3.0 0.00 0.00 0.00 85 1020.2
20230131144704 -2 254 1.0 4.0 0.00 0.00 0.00 85 1020.1
20230131144205 -3 254 2.0 4.0 0.00 0.00 0.00 84 1020.2
20230131143705 -3 252 1.0 3.0 0.00 0.00 0.00 84 1020.0
20230131143204 -3 252 0.0 4.0 0.00 0.00 0.00 84 1019.8
20230131142704 -3 252 1.0 4.0 0.00 0.00 0.00 84 1020.0
20230131142204 -3 252 1.0 3.0 0.00 0.00 0.00 84 1020.1
20230131141705 -3 177 1.0 4.0 0.00 0.00 0.00 84 1020.1
20230131141205 -3 177 1.0 6.0 0.00 0.00 0.00 84 1019.8
20230131140704 -4 177 2.0 6.0 0.00 0.00 0.00 84 1020.1
20230131140205 -4 177 3.0 6.0 0.00 0.00 0.00 83 1019.8
20230131135705 -4 163 3.0 6.0 0.00 0.00 0.00 83 1019.8
20230131135205 -3 126 3.0 6.0 0.00 0.00 0.00 83 1020.1
20230131134206 -2 215 2.0 4.0 0.00 0.00 0.00 84 1020.0
20230131133705 -2 294 1.0 8.0 0.00 0.00 0.00 84 1020.3
20230131133204 -1 295 2.0 8.0 0.00 0.00 0.00 84 1020.4
20230131132704 -1 295 3.0 10.0 0.00 0.00 0.00 84 1020.4
20230131132204 -1 350 4.0 10.0 0.00 0.00 0.00 85 1021.0
20230131131705 -1 190 3.0 10.0 0.00 0.00 0.00 84 1020.4
20230131131205 -1 190 2.0 4.0 0.00 0.00 0.00 84 1020.2
20230131130704 -1 347 1.0 3.0 0.00 0.00 0.00 84 1021.0
20230131125706 -1 348 1.0 6.0 0.00 0.00 0.00 84 1020.5
20230131125204 -1 348 3.0 6.0 0.00 0.00 0.00 85 1020.8
20230131124705 -1 351 3.0 6.0 0.00 0.00 0.00 85 1020.7
20230131123704 -1 26 1.0 3.0 0.00 0.00 0.00 85 1020.1
20230131123204 -1 26 1.0 2.0 0.00 0.00 0.00 85 1020.3
20230131122704 -2 26 0.0 2.0 0.00 0.00 0.00 84 1020.4
20230131122205 -2 26 0.0 2.0 0.00 0.00 0.00 84 1020.8
20230131121705 -2 26 0.0 3.0 0.00 0.00 0.00 84 1020.8
20230131121204 -2 26 1.0 5.0 0.00 0.00 0.00 84 1020.4
20230131120704 -2 26 1.0 6.0 0.00 0.00 0.00 84 1020.7
20230131115704 -1 27 3.0 9.0 0.00 0.00 0.00 84 1020.4
20230131115205 -1 26 3.0 9.0 0.00 0.00 0.00 84 1020.4
20230131114705 -1 41 3.0 6.0 0.00 0.00 0.00 84 1020.3
20230131114204 -1 355 1.0 3.0 0.00 0.00 0.00 83 1020.2
20230131113704 0 166 1.0 3.0 0.00 0.00 0.00 83 1020.1
20230131113204 0 166 1.0 4.0 0.00 0.00 0.00 84 1020.0
20230131112705 1 166 1.0 5.0 0.00 0.00 0.00 84 1020.0
20230131112205 1 168 2.0 5.0 0.00 0.00 0.00 84 1019.8
20230131111704 1 182 2.0 5.0 0.00 0.00 0.00 86 1020.0
20230131111206 0 154 2.0 5.0 0.00 0.00 0.00 85 1020.0
20230131110704 -1 193 1.0 3.0 0.00 0.00 0.00 84 1020.0
20230131110204 -1 193 1.0 3.0 0.00 0.00 0.00 84 1020.2
20230131105704 -1 193 0.0 3.0 0.00 0.00 0.00 84 1020.2
20230131105204 -1 193 0.0 4.0 0.00 0.00 0.00 84 1020.4
20230131104704 -1 193 2.0 4.0 0.00 0.00 0.00 83 1020.5
20230131104204 -1 193 2.0 4.0 0.00 0.00 0.00 83 1020.3
20230131103706 0 196 1.0 2.0 0.00 0.00 0.00 83 1020.7
20230131102204 0 196 2.0 5.0 0.00 0.00 0.00 84 1021.0
20230131101706 0 196 2.0 5.0 0.00 0.00 0.00 84 1021.0
20230131101204 1 88 0.0 0.0 0.00 0.00 0.00 84 1021.4
20230131100704 1 82 0.0 0.0 0.00 0.00 0.00 84 1021.6
20230131100205 1 82 0.0 0.0 0.00 0.00 0.00 84 1021.6
20230131095204 0 82 0.0 0.0 0.00 0.00 0.00 83 1021.6
20230131094204 1 82 0.0 0.0 0.00 0.00 0.00 83 1021.5
20230131093704 1 82 0.0 0.0 0.00 0.00 0.00 83 1021.5
20230131093205 1 82 0.0 0.0 0.00 0.00 0.00 83 1021.5
20230131092705 1 82 0.0 0.0 0.00 0.00 0.00 83 1021.5
20230131091705 2 82 0.0 2.0 0.00 0.00 0.00 83 1021.5
20230131091205 2 82 0.0 2.0 0.00 0.00 0.00 83 1021.5
20230131090705 2 82 1.0 2.0 0.00 0.00 0.00 83 1021.7
20230131090204 2 82 1.0 2.0 0.00 0.00 0.00 83 1021.7
20230131085706 2 82 0.0 2.0 0.00 0.00 0.00 83 1021.6
20230131085204 2 82 0.0 2.0 0.00 0.00 0.00 83 1021.6
20230131084704 2 82 1.0 2.0 0.00 0.00 0.00 83 1021.7
20230131084205 2 82 0.0 2.0 0.00 0.00 0.00 83 1021.6
20230131083705 2 82 0.0 0.0 0.00 0.00 0.00 83 1021.6
20230131083204 2 82 0.0 0.0 0.00 0.00 0.00 83 1021.6
20230131082704 3 82 0.0 2.0 0.00 0.00 0.00 83 1021.6
20230131082204 3 82 0.0 2.0 0.00 0.00 0.00 83 1021.6
20230131081705 3 82 0.0 2.0 0.00 0.00 0.00 83 1021.6
20230131080704 3 82 0.0 3.0 0.00 0.00 0.00 83 1021.8
20230131080204 3 82 1.0 3.0 0.00 0.00 0.00 83 1022.0
20230131075704 3 82 1.0 2.0 0.00 0.00 0.00 83 1022.0
20230131075204 3 82 1.0 2.0 0.00 0.00 0.00 83 1021.8
20230131074704 3 82 1.0 2.0 0.00 0.00 0.00 83 1021.8
20230131074205 3 82 0.0 1.0 0.00 0.00 0.00 83 1021.8
20230131073704 3 82 0.0 2.0 0.00 0.00 0.00 83 1022.0
20230131073204 3 82 0.0 2.0 0.00 0.00 0.00 83 1022.0
20230131072706 3 82 0.0 2.0 0.00 0.00 0.00 83 1022.1
20230131071704 3 82 0.0 2.0 0.00 0.00 0.00 83 1022.2
20230131071205 3 82 0.0 2.0 0.00 0.00 0.00 83 1022.3
20230131065206 3 82 0.0 2.0 0.00 0.00 0.00 82 1022.3
20230131064204 4 82 1.0 2.0 0.00 0.00 0.00 82 1022.5
20230131063204 4 82 0.0 2.0 0.00 0.00 0.00 82 1022.5
20230131062205 4 82 1.0 2.0 0.00 0.00 0.00 82 1022.7
20230131061704 4 82 1.0 2.0 0.00 0.00 0.00 82 1022.5
20230131061204 4 82 1.0 2.0 0.00 0.00 0.00 82 1022.8
20230131060705 4 82 1.0 2.0 0.00 0.00 0.00 82 1022.8
20230131060204 3 82 1.0 2.0 0.00 0.00 0.00 82 1022.7
20230131055706 3 82 0.0 2.0 0.00 0.00 0.00 82 1022.8
20230131055204 3 82 0.0 2.0 0.00 0.00 0.00 81 1022.8
20230131054704 3 82 0.0 2.0 0.00 0.00 0.00 82 1022.8
20230131054206 3 82 0.0 2.0 0.00 0.00 0.00 81 1022.7
20230131053705 2 82 0.0 1.0 0.00 0.00 0.00 81 1022.7
20230131053205 2 82 0.0 1.0 0.00 0.00 0.00 81 1022.8
20230131052704 2 82 0.0 1.0 0.00 0.00 0.00 81 1022.8
20230131052204 2 82 0.0 2.0 0.00 0.00 0.00 80 1022.8
20230131051704 2 82 0.0 2.0 0.00 0.00 0.00 80 1022.7
20230131051204 3 82 0.0 2.0 0.00 0.00 0.00 80 1022.5
20230131045704 3 82 0.0 2.0 0.00 0.00 0.00 79 1022.4
20230131045205 3 82 0.0 2.0 0.00 0.00 0.00 79 1022.4
20230131044705 4 82 0.0 0.0 0.00 0.00 0.00 79 1022.4
20230131044204 4 82 0.0 0.0 0.00 0.00 0.00 79 1022.4
20230131043205 4 82 0.0 1.0 0.00 0.00 0.00 79 1022.4
20230131042206 4 82 0.0 2.0 0.00 0.00 0.00 79 1022.2
20230131041205 4 82 1.0 3.0 0.00 0.00 0.00 78 1022.3
20230131040704 4 82 1.0 3.0 0.00 0.00 0.00 78 1022.3
20230131040205 4 82 1.0 3.0 0.00 0.00 0.00 78 1022.3
20230131035704 4 82 1.0 3.0 0.00 0.00 0.00 78 1022.2
20230131035205 4 82 0.0 2.0 0.00 0.00 0.00 78 1022.3
20230131034704 4 82 0.0 1.0 0.00 0.00 0.00 78 1022.3
20230131034206 4 82 0.0 1.0 0.00 0.00 0.00 78 1022.2
20230131033704 4 82 0.0 2.0 0.00 0.00 0.00 77 1022.2
20230131033204 4 82 0.0 2.0 0.00 0.00 0.00 77 1022.2
20230131032705 4 82 0.0 2.0 0.00 0.00 0.00 77 1022.2
20230131031704 4 82 1.0 2.0 0.00 0.00 0.00 77 1022.2
20230131031204 4 82 1.0 3.0 0.00 0.00 0.00 77 1022.1
20230131030704 4 82 1.0 3.0 0.00 0.00 0.00 77 1022.0
20230131030205 4 82 1.0 3.0 0.00 0.00 0.00 77 1022.0
20230131025704 4 82 0.0 3.0 0.00 0.00 0.00 77 1022.0
20230131025205 4 82 0.0 1.0 0.00 0.00 0.00 77 1022.0